EJA805 KPHX-KVNY

Flight info

Callsign EJA805
Flight time 1h 9m
Altitude 43000
Route KEENS3 HRRBR PHRED THRNE4
Aircraft C700/M-SBDGHM1RWXY/LB2

Departure

Time 2026-05-04 01:52
Airport Phoenix Sky Harbor International Airport (KPHX)

Arrival

Time 2026-05-04 03:02
Airport Van Nuys Airport (KVNY)
Time Latitude Longitude Altitude Speed Heading
2026-05-04 01:33 33.42692 -112.02437 1118 ft 0 kts 216°
2026-05-04 01:35 33.42693 -112.02434 1118 ft 5 kts 95°
2026-05-04 01:35 33.42691 -112.02412 1113 ft 0 kts 95°
2026-05-04 01:47 33.42694 -112.02404 1111 ft 1 kts 34°
2026-05-04 01:48 33.42723 -112.02417 1118 ft 10 kts 338°
2026-05-04 01:48 33.42775 -112.02341 1118 ft 19 kts 90°
2026-05-04 01:48 33.42775 -112.02170 1118 ft 22 kts 90°
2026-05-04 01:48 33.42775 -112.01978 1118 ft 24 kts 90°
2026-05-04 01:49 33.42775 -112.01765 1119 ft 27 kts 90°
2026-05-04 01:49 33.42775 -112.01533 1119 ft 29 kts 90°
2026-05-04 01:49 33.42774 -112.01285 1119 ft 31 kts 91°
2026-05-04 01:49 33.42775 -112.01099 1119 ft 20 kts 90°
2026-05-04 01:50 33.42775 -112.00922 1118 ft 23 kts 90°
2026-05-04 01:50 33.42774 -112.00731 1118 ft 17 kts 90°
2026-05-04 01:50 33.42774 -112.00585 1118 ft 12 kts 89°
2026-05-04 01:50 33.42781 -112.00550 1118 ft 0 kts 62°
2026-05-04 01:51 33.42782 -112.00549 1118 ft 2 kts 60°
2026-05-04 01:51 33.42831 -112.00527 1115 ft 13 kts
2026-05-04 01:51 33.42885 -112.00556 1112 ft 6 kts 274°
2026-05-04 01:52 33.42885 -112.00564 1113 ft 1 kts 270°
2026-05-04 01:52 33.42884 -112.00857 1118 ft 80 kts 270°
2026-05-04 01:52 33.42883 -112.01870 1242 ft 155 kts 270°
2026-05-04 01:52 33.42868 -112.03303 2227 ft 186 kts 265°
2026-05-04 01:53 33.42873 -112.04956 3503 ft 210 kts 266°
2026-05-04 01:53 33.42542 -112.06681 4875 ft 222 kts 246°
2026-05-04 01:53 33.42038 -112.08545 6007 ft 248 kts 252°
2026-05-04 01:53 33.41552 -112.10587 7241 ft 259 kts 249°
2026-05-04 01:54 33.40966 -112.12670 8586 ft 268 kts 247°
2026-05-04 01:54 33.40358 -112.14817 9944 ft 277 kts 248°
2026-05-04 01:54 33.39759 -112.17046 11130 ft 291 kts 249°
2026-05-04 01:54 33.39355 -112.19516 12231 ft 309 kts 263°
2026-05-04 01:55 33.39401 -112.22096 13774 ft 314 kts 273°
2026-05-04 01:55 33.39660 -112.23807 14648 ft 317 kts 277°
2026-05-04 01:55 33.40058 -112.26404 16000 ft 318 kts 276°
2026-05-04 01:55 33.40431 -112.29016 17345 ft 320 kts 276°
2026-05-04 01:56 33.40949 -112.32507 18935 ft 323 kts 276°
2026-05-04 01:56 33.41348 -112.35164 20058 ft 325 kts 277°
2026-05-04 01:56 33.41616 -112.36972 20802 ft 327 kts 277°
2026-05-04 01:56 33.42012 -112.39661 21864 ft 329 kts 277°
2026-05-04 01:57 33.42413 -112.42376 22871 ft 333 kts 277°
2026-05-04 01:57 33.42818 -112.45117 23821 ft 335 kts 277°
2026-05-04 01:57 33.43218 -112.47834 24714 ft 336 kts 277°
2026-05-04 01:57 33.43625 -112.50598 25650 ft 338 kts 277°
2026-05-04 01:58 33.44031 -112.53372 26524 ft 339 kts 277°
2026-05-04 01:58 33.44440 -112.56163 27389 ft 341 kts 277°
2026-05-04 01:58 33.44844 -112.58970 28227 ft 343 kts 276°
2026-05-04 01:58 33.45041 -112.61812 29070 ft 344 kts 270°
2026-05-04 01:59 33.45069 -112.64685 29896 ft 346 kts 269°
2026-05-04 01:59 33.45111 -112.67571 30664 ft 346 kts 270°
2026-05-04 01:59 33.45157 -112.70443 31500 ft 343 kts 270°
2026-05-04 01:59 33.45194 -112.73292 32277 ft 342 kts 270°
2026-05-04 02:00 33.45227 -112.76133 33018 ft 341 kts 270°
2026-05-04 02:00 33.45336 -112.78960 33730 ft 340 kts 274°
2026-05-04 02:00 33.45642 -112.81773 34335 ft 341 kts 277°
2026-05-04 02:00 33.46134 -112.84564 34849 ft 344 kts 279°
2026-05-04 02:01 33.46664 -112.87362 35327 ft 345 kts 279°
2026-05-04 02:01 33.47183 -112.90176 35779 ft 347 kts 279°
2026-05-04 02:01 33.47711 -112.93006 36190 ft 349 kts 279°
2026-05-04 02:01 33.48242 -112.95837 36738 ft 346 kts 278°
2026-05-04 02:02 33.48762 -112.98604 37555 ft 337 kts 278°
2026-05-04 02:02 33.49271 -113.01356 37829 ft 340 kts 278°
2026-05-04 02:02 33.49783 -113.04126 38117 ft 341 kts 278°
2026-05-04 02:02 33.50301 -113.06907 38392 ft 343 kts 278°
2026-05-04 02:03 33.50812 -113.09633 39051 ft 333 kts 278°
2026-05-04 02:03 33.51315 -113.12367 39093 ft 338 kts 278°
2026-05-04 02:03 33.51823 -113.15133 39256 ft 341 kts 278°
2026-05-04 02:03 33.52339 -113.17917 39406 ft 343 kts 278°
2026-05-04 02:04 33.52857 -113.20720 39582 ft 346 kts 278°
2026-05-04 02:04 33.53377 -113.23540 39742 ft 348 kts 278°
2026-05-04 02:04 33.53900 -113.26382 39904 ft 350 kts 278°
2026-05-04 02:04 33.54425 -113.29242 40051 ft 352 kts 278°
2026-05-04 02:05 33.54938 -113.32024 40694 ft 342 kts 278°
2026-05-04 02:05 33.55447 -113.34797 41036 ft 339 kts 278°
2026-05-04 02:05 33.55950 -113.37557 41326 ft 338 kts 278°
2026-05-04 02:05 33.56453 -113.40316 41454 ft 340 kts 278°
2026-05-04 02:06 33.56960 -113.43095 41599 ft 342 kts 278°
2026-05-04 02:06 33.57470 -113.45888 41736 ft 344 kts 278°
2026-05-04 02:06 33.57983 -113.48704 41977 ft 347 kts 278°
2026-05-04 02:06 33.58498 -113.51542 42284 ft 351 kts 278°
2026-05-04 02:07 33.59030 -113.54416 42545 ft 356 kts 279°
2026-05-04 02:07 33.59582 -113.57325 42818 ft 360 kts 279°
2026-05-04 02:07 33.60135 -113.60277 43079 ft 364 kts 278°
2026-05-04 02:07 33.60689 -113.63271 43155 ft 373 kts 279°
2026-05-04 02:08 33.61826 -113.69369 43159 ft 370 kts 279°
2026-05-04 02:08 33.62929 -113.75328 43083 ft 365 kts 278°
2026-05-04 02:09 33.64034 -113.81315 43014 ft 370 kts 278°
2026-05-04 02:09 33.64866 -113.87397 42947 ft 366 kts 272°
2026-05-04 02:10 33.64877 -113.93426 42878 ft 361 kts 268°
2026-05-04 02:10 33.64792 -113.99464 42804 ft 363 kts 268°
2026-05-04 02:11 33.64688 -114.05531 42785 ft 364 kts 268°
2026-05-04 02:11 33.64617 -114.11623 42774 ft 367 kts 270°
2026-05-04 02:12 33.65142 -114.17732 42774 ft 368 kts 274°
2026-05-04 02:12 33.65736 -114.23818 42771 ft 366 kts 274°
2026-05-04 02:13 33.66340 -114.29863 42765 ft 364 kts 274°
2026-05-04 02:13 33.66931 -114.35869 42753 ft 366 kts 274°
2026-05-04 02:14 33.67530 -114.41950 42761 ft 368 kts 274°
2026-05-04 02:14 33.68126 -114.48064 42760 ft 369 kts 274°
2026-05-04 02:15 33.68722 -114.54189 42552 ft 372 kts 273°
2026-05-04 02:15 33.69021 -114.57281 42070 ft 371 kts 273°
2026-05-04 02:15 33.69317 -114.60327 41583 ft 363 kts 273°
2026-05-04 02:16 33.69605 -114.63290 41109 ft 352 kts 272°
2026-05-04 02:16 33.69880 -114.66159 40649 ft 340 kts 272°
2026-05-04 02:16 33.70145 -114.68938 40208 ft 330 kts 272°
2026-05-04 02:16 33.70403 -114.71642 39773 ft 324 kts 272°
2026-05-04 02:17 33.70657 -114.74318 39348 ft 322 kts 272°
2026-05-04 02:17 33.70911 -114.77000 38924 ft 324 kts 271°
2026-05-04 02:17 33.71167 -114.79702 38494 ft 328 kts 271°
2026-05-04 02:17 33.71426 -114.82436 38030 ft 331 kts 271°
2026-05-04 02:18 33.71686 -114.85189 37590 ft 332 kts 271°
2026-05-04 02:18 33.71943 -114.87909 37150 ft 332 kts 272°
2026-05-04 02:18 33.72205 -114.90677 36717 ft 337 kts 272°
2026-05-04 02:18 33.72468 -114.93502 36271 ft 342 kts 272°
2026-05-04 02:19 33.72734 -114.96347 35821 ft 345 kts 272°
2026-05-04 02:19 33.73004 -114.99240 35362 ft 351 kts 272°
2026-05-04 02:19 33.73277 -115.02149 34900 ft 349 kts 272°
2026-05-04 02:19 33.73546 -115.05030 34441 ft 345 kts 272°
2026-05-04 02:20 33.73809 -115.07875 33991 ft 340 kts 272°
2026-05-04 02:20 33.74069 -115.10687 33521 ft 338 kts 272°
2026-05-04 02:20 33.74326 -115.13490 33065 ft 337 kts 272°
2026-05-04 02:20 33.74582 -115.16299 32623 ft 339 kts 272°
2026-05-04 02:21 33.74846 -115.19124 32177 ft 343 kts 272°
2026-05-04 02:21 33.75147 -115.22065 31713 ft 367 kts 273°
2026-05-04 02:21 33.75475 -115.25150 31227 ft 374 kts 273°
2026-05-04 02:21 33.75795 -115.28239 30740 ft 371 kts 273°
2026-05-04 02:22 33.76098 -115.31269 30257 ft 370 kts 273°
2026-05-04 02:22 33.76405 -115.34339 29758 ft 370 kts 273°
2026-05-04 02:22 33.76716 -115.37411 29243 ft 370 kts 273°
2026-05-04 02:22 33.77027 -115.40476 28791 ft 369 kts 273°
2026-05-04 02:23 33.77651 -115.46536 28770 ft 368 kts 274°
2026-05-04 02:23 33.78286 -115.52637 28769 ft 367 kts 273°
2026-05-04 02:24 33.78908 -115.58701 28767 ft 365 kts 273°
2026-05-04 02:24 33.79515 -115.64771 28770 ft 364 kts 273°
2026-05-04 02:25 33.80096 -115.70827 28772 ft 366 kts 273°
2026-05-04 02:25 33.80689 -115.76916 28776 ft 367 kts 273°
2026-05-04 02:26 33.81275 -115.83006 28778 ft 365 kts 272°
2026-05-04 02:26 33.81897 -115.89055 28771 ft 365 kts 273°
2026-05-04 02:27 33.82509 -115.95133 28777 ft 367 kts 273°
2026-05-04 02:27 33.83118 -116.01162 28095 ft 355 kts 273°
2026-05-04 02:28 33.83411 -116.04095 27250 ft 349 kts 273°
2026-05-04 02:28 33.83697 -116.06976 26694 ft 347 kts 273°
2026-05-04 02:28 33.83987 -116.09912 26200 ft 359 kts 273°
2026-05-04 02:28 33.84275 -116.12913 25723 ft 361 kts 272°
2026-05-04 02:29 33.84502 -116.15871 25254 ft 359 kts 271°
2026-05-04 02:29 33.84725 -116.18854 24776 ft 357 kts 272°
2026-05-04 02:29 33.84958 -116.21835 24167 ft 359 kts 272°
2026-05-04 02:29 33.85193 -116.24831 23575 ft 359 kts 272°
2026-05-04 02:30 33.85420 -116.27808 22874 ft 356 kts 271°
2026-05-04 02:30 33.85643 -116.30763 22151 ft 352 kts 271°
2026-05-04 02:30 33.85866 -116.33688 21441 ft 349 kts 271°
2026-05-04 02:30 33.86095 -116.36581 20752 ft 346 kts 272°
2026-05-04 02:31 33.86374 -116.39448 20075 ft 344 kts 272°
2026-05-04 02:31 33.86653 -116.42300 19410 ft 342 kts 272°
2026-05-04 02:31 33.86920 -116.45130 18790 ft 339 kts 272°
2026-05-04 02:31 33.87184 -116.47947 18100 ft 338 kts 272°
2026-05-04 02:32 33.87452 -116.50762 17272 ft 338 kts 272°
2026-05-04 02:32 33.87771 -116.53569 16463 ft 340 kts 276°
2026-05-04 02:32 33.88240 -116.56363 15676 ft 341 kts 277°
2026-05-04 02:32 33.88677 -116.59146 15265 ft 333 kts 276°
2026-05-04 02:33 33.89099 -116.61877 15070 ft 335 kts 276°
2026-05-04 02:33 33.89529 -116.64623 14863 ft 330 kts 277°
2026-05-04 02:33 33.89957 -116.67279 14808 ft 317 kts 277°
2026-05-04 02:33 33.90369 -116.69870 14795 ft 317 kts 276°
2026-05-04 02:34 33.90781 -116.72501 14815 ft 321 kts 276°
2026-05-04 02:34 33.91201 -116.75140 14816 ft 321 kts 277°
2026-05-04 02:34 33.91620 -116.77778 14823 ft 320 kts 276°
2026-05-04 02:34 33.92030 -116.80380 14840 ft 320 kts 276°
2026-05-04 02:35 33.92445 -116.83012 14832 ft 322 kts 276°
2026-05-04 02:35 33.92865 -116.85691 14514 ft 327 kts 277°
2026-05-04 02:35 33.93288 -116.88369 14132 ft 325 kts 277°
2026-05-04 02:35 33.93708 -116.91033 13738 ft 323 kts 277°
2026-05-04 02:36 33.94123 -116.93691 13314 ft 321 kts 276°
2026-05-04 02:36 33.94538 -116.96299 12924 ft 312 kts 278°
2026-05-04 02:36 33.95086 -116.98795 12543 ft 305 kts 281°
2026-05-04 02:36 33.95638 -117.01235 12148 ft 301 kts 281°
2026-05-04 02:37 33.96171 -117.03673 11782 ft 300 kts 280°
2026-05-04 02:37 33.96706 -117.06107 11410 ft 300 kts 281°
2026-05-04 02:37 33.97244 -117.08530 11048 ft 300 kts 281°
2026-05-04 02:37 33.97776 -117.10922 10959 ft 291 kts 281°
2026-05-04 02:38 33.98295 -117.13293 10977 ft 296 kts 280°
2026-05-04 02:38 33.98819 -117.15711 10983 ft 299 kts 280°
2026-05-04 02:38 33.99352 -117.18139 10985 ft 300 kts 281°
2026-05-04 02:38 33.99919 -117.20565 10985 ft 301 kts 282°
2026-05-04 02:39 34.00533 -117.22934 10990 ft 300 kts 283°
2026-05-04 02:39 34.01142 -117.25342 10990 ft 301 kts 283°
2026-05-04 02:39 34.01749 -117.27760 10992 ft 302 kts 283°
2026-05-04 02:39 34.02362 -117.30181 10997 ft 301 kts 283°
2026-05-04 02:40 34.02976 -117.32600 10990 ft 302 kts 283°
2026-05-04 02:40 34.03582 -117.34988 10991 ft 291 kts 283°
2026-05-04 02:40 34.04164 -117.37286 10925 ft 283 kts 282°
2026-05-04 02:40 34.04730 -117.39549 10789 ft 281 kts 282°
2026-05-04 02:41 34.05299 -117.41809 10629 ft 281 kts 282°
2026-05-04 02:41 34.05869 -117.44068 10449 ft 282 kts 283°
2026-05-04 02:41 34.06439 -117.46333 10267 ft 283 kts 283°
2026-05-04 02:41 34.07009 -117.48601 10090 ft 282 kts 283°
2026-05-04 02:42 34.07494 -117.50868 9997 ft 274 kts 276°
2026-05-04 02:42 34.07819 -117.53128 10000 ft 275 kts 276°
2026-05-04 02:42 34.08182 -117.55412 9997 ft 279 kts 277°
2026-05-04 02:42 34.08546 -117.57684 9998 ft 280 kts 277°
2026-05-04 02:43 34.08905 -117.59992 9999 ft 279 kts 277°
2026-05-04 02:43 34.09259 -117.62294 9994 ft 279 kts 277°
2026-05-04 02:43 34.09616 -117.64589 10012 ft 278 kts 277°
2026-05-04 02:43 34.09971 -117.66883 10008 ft 278 kts 277°
2026-05-04 02:44 34.10207 -117.68404 10010 ft 278 kts 277°
2026-05-04 02:44 34.10561 -117.70703 10010 ft 279 kts 277°
2026-05-04 02:44 34.10916 -117.73002 10014 ft 279 kts 277°
2026-05-04 02:44 34.11273 -117.75317 10010 ft 280 kts 277°
2026-05-04 02:45 34.11630 -117.77631 10011 ft 280 kts 277°
2026-05-04 02:45 34.11985 -117.79942 10007 ft 279 kts 277°
2026-05-04 02:45 34.12338 -117.82242 10013 ft 278 kts 277°
2026-05-04 02:45 34.12690 -117.84536 10002 ft 278 kts 277°
2026-05-04 02:46 34.13043 -117.86852 9800 ft 283 kts 277°
2026-05-04 02:46 34.13394 -117.89186 9494 ft 281 kts 277°
2026-05-04 02:46 34.13740 -117.91490 9191 ft 277 kts 277°
2026-05-04 02:46 34.14083 -117.93765 8878 ft 275 kts 277°
2026-05-04 02:47 34.14421 -117.96030 8578 ft 274 kts 277°
2026-05-04 02:47 34.14759 -117.98292 8264 ft 274 kts 277°
2026-05-04 02:47 34.15104 -118.00551 8029 ft 272 kts 279°
2026-05-04 02:47 34.15559 -118.02746 8019 ft 270 kts 282°
2026-05-04 02:48 34.16014 -118.04900 8019 ft 274 kts 281°
2026-05-04 02:48 34.16455 -118.07080 8016 ft 276 kts 281°
2026-05-04 02:48 34.16914 -118.09337 8018 ft 277 kts 281°
2026-05-04 02:48 34.17379 -118.11590 8025 ft 276 kts 282°
2026-05-04 02:49 34.17843 -118.13838 8020 ft 275 kts 281°
2026-05-04 02:49 34.18302 -118.16082 8019 ft 275 kts 281°
2026-05-04 02:49 34.18760 -118.18324 8005 ft 275 kts 281°
2026-05-04 02:49 34.19220 -118.20566 8006 ft 274 kts 281°
2026-05-04 02:50 34.19676 -118.22801 8016 ft 275 kts 281°
2026-05-04 02:50 34.20134 -118.25050 7949 ft 278 kts 282°
2026-05-04 02:50 34.20602 -118.27341 7585 ft 279 kts 282°
2026-05-04 02:50 34.21068 -118.29540 7167 ft 266 kts 286°
2026-05-04 02:51 34.22078 -118.31486 6736 ft 282 kts 312°
2026-05-04 02:51 34.23571 -118.33004 6294 ft 278 kts 320°
2026-05-04 02:51 34.25093 -118.34395 6013 ft 268 kts 321°
2026-05-04 02:51 34.26552 -118.35708 6026 ft 258 kts 321°
2026-05-04 02:52 34.28005 -118.37009 6021 ft 262 kts 321°
2026-05-04 02:52 34.29479 -118.38326 6020 ft 264 kts 321°
2026-05-04 02:52 34.30961 -118.39648 6021 ft 265 kts 321°
2026-05-04 02:52 34.32442 -118.40962 6018 ft 264 kts 322°
2026-05-04 02:53 34.33933 -118.42244 6022 ft 263 kts 326°
2026-05-04 02:53 34.35605 -118.43177 6008 ft 267 kts 339°
2026-05-04 02:53 34.37369 -118.43864 6019 ft 267 kts 341°
2026-05-04 02:53 34.39126 -118.44508 5950 ft 262 kts 342°
2026-05-04 02:54 34.40845 -118.45130 5694 ft 259 kts 341°
2026-05-04 02:54 34.42563 -118.45750 5438 ft 256 kts 341°
2026-05-04 02:54 34.44269 -118.46363 5218 ft 255 kts 342°
2026-05-04 02:54 34.45948 -118.46977 5202 ft 251 kts 339°
2026-05-04 02:55 34.48177 -118.49919 5194 ft 246 kts 276°
2026-05-04 02:55 34.47967 -118.51885 5202 ft 232 kts 244°
2026-05-04 02:55 34.46909 -118.53273 5199 ft 224 kts 209°
2026-05-04 02:56 34.45392 -118.53632 5200 ft 227 kts 174°
2026-05-04 02:56 34.43935 -118.52875 5142 ft 235 kts 147°
2026-05-04 02:56 34.42635 -118.51671 5019 ft 232 kts 149°
2026-05-04 02:56 34.41182 -118.51054 5021 ft 211 kts 170°
2026-05-04 02:57 34.39778 -118.50835 4993 ft 197 kts 175°
2026-05-04 02:57 34.38452 -118.50687 4737 ft 186 kts 176°
2026-05-04 02:57 34.37192 -118.50584 4438 ft 178 kts 176°
2026-05-04 02:57 34.35967 -118.50452 4158 ft 176 kts 177°
2026-05-04 02:58 34.34742 -118.50353 3887 ft 174 kts 179°
2026-05-04 02:58 34.33559 -118.50229 3616 ft 170 kts 177°
2026-05-04 02:58 34.32402 -118.50118 3349 ft 161 kts 179°
2026-05-04 02:58 34.31338 -118.50021 3135 ft 142 kts 178°
2026-05-04 02:59 34.30380 -118.49923 2903 ft 140 kts 180°
2026-05-04 02:59 34.29413 -118.49849 2680 ft 138 kts 179°
2026-05-04 02:59 34.28457 -118.49738 2461 ft 136 kts 179°
2026-05-04 02:59 34.27504 -118.49677 2198 ft 138 kts 179°
2026-05-04 03:00 34.26571 -118.49560 1997 ft 133 kts 175°
2026-05-04 03:00 34.25647 -118.49478 1809 ft 133 kts 177°
2026-05-04 03:00 34.24717 -118.49379 1596 ft 135 kts 175°
2026-05-04 03:00 34.23786 -118.49296 1359 ft 132 kts 176°
2026-05-04 03:01 34.22880 -118.49205 1122 ft 130 kts 178°
2026-05-04 03:01 34.21962 -118.49123 910 ft 133 kts 181°
2026-05-04 03:01 34.21070 -118.49042 788 ft 115 kts 179°
2026-05-04 03:01 34.20486 -118.48995 770 ft 50 kts 175°
2026-05-04 03:02 34.20326 -118.48979 764 ft 10 kts 179°
2026-05-04 03:02 34.20270 -118.49014 762 ft 13 kts 250°
2026-05-04 03:02 34.20289 -118.49077 762 ft 9 kts 337°
2026-05-04 03:02 34.20337 -118.49112 764 ft 8 kts 277°
2026-05-04 03:03 34.20370 -118.49147 766 ft 6 kts 359°
2026-05-04 03:03 34.20410 -118.49153 768 ft 7 kts 342°
2026-05-04 03:03 34.20430 -118.49156 769 ft 0 kts